User: anonymous   Login
Location: Austin, TX
(30.3000°N, 97.7500°W)
Time: 23:57:38
(UTC-06:00)
Language:

Cosmos 2082 Rocket - Orbit

View from above orbital plane
View from above orbital plane
View from above satellite
View from above satellite

Ground track
Ground track

The orbit data is extracted from the following two-line orbital elements,

1 20625U 90046B   18055.85970737 -.00000246  00000-0 -10333-3 0  9996
2 20625  71.0018 338.8268 0011742  81.6583 278.5870 14.14628762433578
Epoch (UTC): 24 February 2018 20:37:58
Eccentricity: 0.0011742
inclination: 71.0018°
perigee height: 835 km
apogee height: 852 km
right ascension of ascending node: 338.8268°
argument of perigee: 81.6583°
revolutions per day: 14.14628762
mean anomaly at epoch: 278.5870°
orbit number at epoch: 43357

The dashed part of the orbit path shows where the satellite is in the earth's shadow,  

DLR